This is the latest recevied weather packets stored in our database for station/object N7CEE. If no packets are shown the sender has not sent any weather packets the latest 10 day(s).
| Time | Temp. | Humidity | Pressure | Rain* | Wind** | Luminosity | Snow |
|---|---|---|---|---|---|---|---|
| 1777675584 | 15.56° C | 27% | 1021.8 hPa | 0 mm | - | 135 W/m² | - |
| 1777675281 | 15.56° C | 27% | 1021.8 hPa | 0 mm | - | 162 W/m² | - |
| 1777674978 | 15.56° C | 28% | 1021.8 hPa | 0 mm | - | 166 W/m² | - |
| 1777674675 | 15.56° C | 28% | 1021.8 hPa | 0 mm | - | 203 W/m² | - |
| 1777674386 | 15.56° C | 29% | 1021.9 hPa | 0 mm | - | 167 W/m² | - |
| 1777674068 | 15.56° C | 27% | 1021.8 hPa | 0 mm | - | 125 W/m² | - |
| 1777673764 | 16.11° C | 28% | 1021.9 hPa | 0 mm | - | 145 W/m² | - |
| 1777673461 | 17.22° C | 27% | 1021.6 hPa | 0 mm | - | 162 W/m² | - |
| 1777673159 | 16.67° C | 27% | 1021.6 hPa | 0 mm | - | 756 W/m² | - |
| 1777672856 | 16.11° C | 27% | 1022 hPa | 0 mm | - | 331 W/m² | - |
| 1777672552 | 15° C | 29% | 1021.9 hPa | 0 mm | - | 390 W/m² | - |
| 1777672247 | 15° C | 28% | 1022 hPa | 0 mm | - | 133 W/m² | - |
| 1777671943 | 15° C | 28% | 1022.3 hPa | 0 mm | - | 162 W/m² | - |
| 1777671639 | 15° C | 28% | 1022.3 hPa | 0 mm | - | 189 W/m² | - |
| 1777671336 | 15.56° C | 28% | 1022.3 hPa | 0 mm | - | 158 W/m² | - |
| 1777671032 | 15.56° C | 28% | 1022.1 hPa | 0 mm | - | 130 W/m² | - |
| 1777670728 | 15.56° C | 27% | 1022.4 hPa | 0 mm | - | 160 W/m² | - |
| 1777670426 | 15.56° C | 28% | 1022.5 hPa | 0 mm | - | 235 W/m² | - |
| 1777670122 | 15.56° C | 27% | 1022.5 hPa | 0 mm | - | 271 W/m² | - |
| 1777669821 | 15° C | 29% | 1022.5 hPa | 0 mm | - | 294 W/m² | - |
| 1777669516 | 15° C | 29% | 1022.5 hPa | 0 mm | - | 199 W/m² | - |
| 1777669213 | 14.44° C | 29% | 1022.6 hPa | 0 mm | - | 145 W/m² | - |
| 1777668910 | 14.44° C | 29% | 1022.6 hPa | 0 mm | - | 113 W/m² | - |
| 1777668608 | 15° C | 29% | 1022.8 hPa | 0 mm | - | 129 W/m² | - |
| 1777668303 | 15° C | 27% | 1022.6 hPa | 0 mm | - | 214 W/m² | - |
* Rain latest hour (hover to see other rain measurements)
** Current wind speed in m/s (hover to see current wind gust speed)